Location: Bourg-d�Oueil
(42.8588°N, 0.4991°E)
Time: 20:10:15
(UTC+00:00)

Cosmos 1605 Rocket - Pass Details

Date: 16 June 2021
Orbit: 944 x 1006 km, 82.9° (Epoch: 02 August)

Event Time Altitude Azimuth Distance (km) Brightness Sun altitude
Rises 20:30:57 0° 352° (N) 3,745 8.0 -8.3°
Reaches altitude 10° 20:33:31 10° 353° (N) 2,791 7.2 -8.7°
Maximum altitude 20:39:57 85° 83° (E) 1,011 4.1 -9.5°
Drops below altitude 10° 20:46:18 10° 172° (S) 2,750 5.9 -10.3°
Enters shadow 20:47:19 - 172° (S) 3,130 6.2 -10.4°
